This demonstration page uses our WeatherBlox Daily Observations layout. Learn more.

38.88101, -77.10428

Hourly Observations for September 12, 2019

Temp ( °F °C ) Dew Point ( °F °C ) Humidity (%) Winds ( mph kmh ) Pressure ( in mb ) Visibility ( mi km ) Precip ( " mm )
12:52 am 00:52 Mostly Cloudy 75 23.9 69 20.6 82 82 SSW 6 9 30.06 1018 10 16.09344 0 0
1:52 am 01:52 Mostly Cloudy 75 23.9 69 20.6 82 82 SSW 8 13 30.06 1018 10 16.09344 0 0
2:52 am 02:52 Mostly Cloudy 74 23.3 69 20.6 85 85 SSW 5 7 30.03 1017 10 16.09344 0 0
3:52 am 03:52 Partly Cloudy 75 23.9 69 20.6 82 82 S 8 13 30.03 1017 10 16.09344 0 0
4:52 am 04:52 Partly Cloudy 75 23.9 68 20 79 79 S 6 9 30.03 1017 10 16.09344 0 0
5:52 am 05:52 Partly Cloudy 75 23.9 68 20 79 79 SSW 3 6 30.06 1018 10 16.09344 0 0
6:52 am 06:52 Partly Cloudy 75 23.9 68 20 79 79 Calm 30.06 1018 10 16.09344 0 0
7:52 am 07:52 Mostly Cloudy 78 25.6 69 20.6 74 74 Calm 30.09 1019 10 16.09344 0 0
8:52 am 08:52 Mostly Cloudy 79 26.1 70 21.1 74 74 E 3 6 30.09 1019 10 16.09344 0 0
9:52 am 09:52 Mostly Cloudy 84 28.9 70 21.1 63 63 NE 6 9 30.09 1019 10 16.09344 0 0
10:52 am 10:52 Mostly Cloudy 91 32.8 69 20.6 49 49 NNW 10 17 30.09 1019 10 16.09344 0 0
11:52 am 11:52 Mostly Cloudy 94 34.4 68 20 43 43 NNW 16 26 30.06 1018 10 16.09344 0 0
12:52 pm 12:52 Mostly Cloudy 95 35 68 20 41 41 NNW 8 13 30.06 1018 10 16.09344 0 0
1:52 pm 13:52 Partly Cloudy 96 35.6 66 18.9 37 37 NNW 15 24 30.03 1017 10 16.09344 0 0
2:52 pm 14:52 Mostly Cloudy 97 36.1 66 18.9 36 36 NNW 10 17 30.03 1017 10 16.09344 0 0
4:52 pm 16:52 Mostly Cloudy 97 36.1 65 18.3 35 35 WNW 10 17 30 1016 10 16.09344 0 0
5:52 pm 17:52 Mostly Cloudy 87 30.6 68 20 53 53 NNE 14 22 30.03 1017 10 16.09344 0 0
6:52 pm 18:52 Mostly Cloudy 86 30 67 19.4 53 53 Calm 30.06 1018 10 16.09344 0 0
7:52 pm 19:52 Mostly Cloudy 84 28.9 70 21.1 63 63 E 3 6 30.06 1018 10 16.09344 0 0
8:50 pm 20:50 Cloudy with Nearby Thunderstorms 84 29 68 20 58 58 ENE 5 7 30.09 1019 10 16.09344 0 0
8:52 pm 20:52 Cloudy with Nearby Thunderstorms 84 28.9 69 20.6 61 61 ENE 5 7 30.09 1019 10 16.09344 0 0
9:49 pm 21:49 Cloudy with Light Rain 81 27 72 22 74 74 ENE 14 22 30.12 1020 10 16.09344 0.03 0.762
9:52 pm 21:52 Cloudy with Light Rain 80 26.7 73 22.8 79 79 ENE 13 20 30.12 1020 10 16.09344 0.03 0.762
10:52 pm 22:52 Mostly Cloudy 78 25.6 70 21.1 76 76 NE 15 24 30.15 1021 10 16.09344 0.001 0.001
11:28 pm 23:28 Cloudy 77 25 71 21.7 82 82 ENE 12 19 30.18 1022 10 16.09344 0 0
11:52 pm 23:52 Cloudy 77 25 70 21.1 79 79 ENE 10 17 30.15 1021 10 16.09344 0 0

Powered by AerisWeather